Citadel — PBOK — position and weather

sailwx.info

Track history (hours):
 
Tides and Currents Weather Stations Pressure Air Temp Water Temp Dewpoint Dewpoint Depression Visibility Wind Speed Wind Dir Waves Ship Positions

Citadel

Last reported at 2014-Nov-21 14:19 UTC. Time now 2014-Nov-24 09:17 UTC.
Position N 50°29' E 000°04'.

Length 111 m; draft 6.4 m.

Type: Cargo ship. MMSI: 245977000.

Date/timePositionNaut miles runAvg speedWind from/ knotsBaromVisibWave heightAir tempDewpointWater temp
2014-Nov-21 14:19N 50°29' E 000°04'1013.3
2014-Nov-21 13:33N 50°32' E 000°20'1312.7
2014-Nov-21 12:33N 50°36' E 000°39'1211.9
2014-Nov-21 11:33N 50°43' E 000°54'1210.7
2014-Nov-21 10:28N 50°50' E 001°09'910.3
2014-Nov-21 09:34N 50°56' E 001°20'1111.5
2014-Nov-21 08:33N 51°04' E 001°33'1010.2
2014-Nov-21 07:34N 51°02' E 001°49'1312.4
2014-Nov-21 06:32N 51°03' E 002°09'8 6.1
2014-Nov-21 05:16N 51°03' E 002°21'0 0.5
2014-Nov-21 04:34N 51°03' E 002°21'0 0.0
2014-Nov-21 03:33N 51°03' E 002°21'0 0.0
2014-Nov-21 02:17N 51°03' E 002°21'0 0.0
2014-Nov-21 01:23N 51°03' E 002°21'0 0.0
2014-Nov-21 00:28N 51°03' E 002°21'0 0.0
2014-Nov-20 22:18N 51°03' E 002°21'0 0.0
2014-Nov-20 21:33N 51°03' E 002°21'0 0.0
2014-Nov-20 19:08N 51°03' E 002°21'0 0.0
2014-Nov-20 17:28N 51°03' E 002°21'0 0.0
2014-Nov-20 15:24N 51°03' E 002°21'0 0.0
2014-Nov-20 13:06N 51°03' E 002°21'0 0.0
2014-Nov-20 11:21N 51°03' E 002°21'0 0.0
2014-Nov-20 09:28N 51°03' E 002°21'0 0.0
2014-Nov-20 07:09N 51°03' E 002°21'0 0.0
2014-Nov-20 06:08N 51°03' E 002°21'0 0.0
2014-Nov-20 05:17N 51°03' E 002°21'0 0.0
2014-Nov-20 03:25N 51°03' E 002°21'0 0.0
2014-Nov-20 02:22N 51°03' E 002°21'0 0.0
2014-Nov-20 01:24N 51°03' E 002°21'0 0.0
2014-Nov-19 21:17N 51°03' E 002°21'0 0.0
2014-Nov-19 20:28N 51°03' E 002°21'0 0.0
2014-Nov-19 19:22N 51°03' E 002°21'0 0.0
2014-Nov-19 18:33N 51°03' E 002°21'0 0.0
2014-Nov-19 17:33N 51°03' E 002°21'0 0.0
2014-Nov-19 15:26N 51°03' E 002°21'0 0.0
2014-Nov-19 12:12N 51°03' E 002°21'1 1.4
2014-Nov-19 11:32N 51°03' E 002°21'8 6.7
2014-Nov-19 10:17N 51°03' E 002°07'1114.6
2014-Nov-19 09:33N 51°03' E 001°50'1211.7
2014-Nov-19 08:34N 51°11' E 001°37'1212.3
2014-Nov-19 07:34N 51°23' E 001°43'1413.7
2014-Nov-19 06:33N 51°37' E 001°45'1414.1
2014-Nov-19 05:33N 51°51' E 001°43'1414.1
2014-Nov-19 04:33N 52°05' E 001°47'1413.6
2014-Nov-19 03:33N 52°18' E 001°50'1211.7
2014-Nov-19 02:33N 52°30' E 001°53'1110.5
2014-Nov-19 01:33N 52°40' E 001°50'1111.4
2014-Nov-19 00:33N 52°50' E 001°39'1111.1
2014-Nov-18 23:33N 52°59' E 001°30'1111.3
2014-Nov-18 22:33N 53°09' E 001°20'3511.5
2014-Nov-18 19:32N 53°35' E 000°41'1111.5
2014-Nov-18 18:33N 53°43' E 000°28'1211.6
2014-Nov-18 17:34N 53°53' E 000°17'1211.9
2014-Nov-18 16:33N 54°02' E 000°05'1212.5
2014-Nov-18 15:33N 54°13' W 000°06'1313.1
2014-Nov-18 14:33N 54°23' W 000°21'1313.4
2014-Nov-18 13:33N 54°32' W 000°37'1312.7
2014-Nov-18 12:33N 54°41' W 000°54'1313.0
2014-Nov-18 11:33N 54°48' W 001°12'5 4.7
2014-Nov-18 10:33N 54°50' W 001°20'0 0.0
2014-Nov-18 09:12N 54°50' W 001°20'0 0.0
2014-Nov-18 08:23N 54°50' W 001°20'0 0.0
2014-Nov-18 07:32N 54°50' W 001°20'0 0.0
2014-Nov-18 06:26N 54°50' W 001°20'0 0.0
2014-Nov-18 05:23N 54°50' W 001°20'0 0.0
2014-Nov-18 04:31N 54°50' W 001°20'0 0.0
2014-Nov-18 03:24N 54°50' W 001°20'0 0.0
2014-Nov-18 02:18N 54°50' W 001°20'0 0.0
2014-Nov-18 01:26N 54°50' W 001°20'0 0.0
2014-Nov-18 00:20N 54°50' W 001°20'0 0.0
2014-Nov-17 23:23N 54°50' W 001°20'0 0.0
2014-Nov-17 22:22N 54°50' W 001°20'0 0.0
2014-Nov-17 21:31N 54°50' W 001°20'0 0.0
2014-Nov-17 20:24N 54°50' W 001°20'0 0.0
2014-Nov-17 18:26N 54°50' W 001°20'0 0.0
2014-Nov-17 17:32N 54°50' W 001°20'0 0.0
2014-Nov-17 16:26N 54°50' W 001°20'0 0.0
2014-Nov-17 15:16N 54°50' W 001°20'0 0.0
2014-Nov-17 14:31N 54°50' W 001°20'0 0.0
2014-Nov-17 13:33N 54°50' W 001°20'0 0.0
2014-Nov-17 12:30N 54°50' W 001°20'0 0.0
2014-Nov-17 11:20N 54°50' W 001°20'0 0.0
2014-Nov-17 10:32N 54°50' W 001°20'0 0.0
2014-Nov-17 09:29N 54°50' W 001°20'0 0.0
2014-Nov-17 08:25N 54°50' W 001°20'0 0.0
2014-Nov-16 23:33N 54°50' W 001°20'0 0.0
2014-Nov-16 22:33N 54°50' W 001°20'0 0.0
2014-Nov-16 16:28N 54°50' W 001°20'0 0.0
2014-Nov-16 15:33N 54°50' W 001°20'0 0.0
2014-Nov-16 14:03N 54°50' W 001°20'0 0.0
2014-Nov-16 13:20N 54°50' W 001°20'0 0.0
2014-Nov-16 06:32N 54°50' W 001°20'0 0.0
2014-Nov-16 05:32N 54°50' W 001°20'0 0.0
2014-Nov-16 04:31N 54°50' W 001°20'0 0.0
2014-Nov-15 22:31N 54°50' W 001°20'0 0.0
2014-Nov-15 21:31N 54°50' W 001°20'0 0.0
2014-Nov-15 20:23N 54°50' W 001°20'0 0.0
2014-Nov-15 19:33N 54°50' W 001°20'0 0.0
2014-Nov-15 15:25N 54°50' W 001°20'0 0.0
2014-Nov-15 14:22N 54°50' W 001°20'0 0.0
2014-Nov-15 13:12N 54°50' W 001°20'0 0.0
2014-Nov-15 12:21N 54°50' W 001°20'0 0.0
2014-Nov-15 11:33N 54°50' W 001°20'0 0.0
2014-Nov-15 10:23N 54°50' W 001°20'0 0.1
2014-Nov-15 09:31N 54°50' W 001°20'1 0.8
2014-Nov-15 08:22N 54°50' W 001°18'0 0.0
2014-Nov-15 07:30N 54°51' W 001°18'0 0.0
2014-Nov-15 06:33N 54°51' W 001°18'0 0.0
2014-Nov-15 05:33N 54°51' W 001°18'0 0.0
2014-Nov-15 04:32N 54°51' W 001°18'0 0.0
2014-Nov-15 00:06N 54°51' W 001°18'0 0.0
2014-Nov-14 22:33N 54°51' W 001°18'0 0.0
2014-Nov-14 21:23N 54°51' W 001°18'0 0.0
2014-Nov-14 20:32N 54°51' W 001°18'8 1.2
2014-Nov-14 14:16N 54°46' W 001°07'6 2.0
2014-Nov-14 11:15N 54°50' W 001°16'4 2.1
2014-Nov-14 09:15N 54°48' W 001°09'4 1.1
2014-Nov-14 05:27N 54°52' W 001°12'3 0.4
2014-Nov-13 22:32N 54°49' W 001°13'1 0.8
2014-Nov-13 21:20N 54°48' W 001°12'4 0.6
2014-Nov-13 14:17N 54°51' W 001°18'0 0.0
2014-Nov-13 13:11N 54°51' W 001°18'0 0.0
2014-Nov-13 11:31N 54°51' W 001°18'0 0.0
2014-Nov-13 09:09N 54°51' W 001°18'0 0.0
2014-Nov-13 06:32N 54°51' W 001°18'0 0.0
2014-Nov-13 05:13N 54°51' W 001°18'0 0.0
2014-Nov-13 04:19N 54°51' W 001°18'0 0.0
2014-Nov-13 03:16N 54°51' W 001°18'0 0.0
2014-Nov-13 02:33N 54°51' W 001°18'0 0.0
2014-Nov-13 01:12N 54°51' W 001°18'0 0.0
2014-Nov-13 00:31N 54°51' W 001°18'0 0.0
2014-Nov-12 23:24N 54°51' W 001°18'0 0.0
2014-Nov-12 22:31N 54°51' W 001°18'0 0.0
2014-Nov-12 21:04N 54°51' W 001°18'0 0.0
2014-Nov-12 20:25N 54°51' W 001°18'0 0.0
2014-Nov-12 19:18N 54°51' W 001°18'0 0.0
2014-Nov-12 18:18N 54°51' W 001°18'0 0.0
2014-Nov-12 17:26N 54°51' W 001°18'0 0.0
2014-Nov-12 16:32N 54°51' W 001°18'0 0.0
2014-Nov-12 15:25N 54°51' W 001°18'0 0.0
2014-Nov-12 14:16N 54°51' W 001°18'0 0.0
2014-Nov-12 13:31N 54°51' W 001°18'0 0.0
2014-Nov-12 12:24N 54°51' W 001°18'0 0.0
2014-Nov-12 11:08N 54°51' W 001°18'0 0.0
2014-Nov-12 10:26N 54°51' W 001°18'0 0.0
2014-Nov-12 09:32N 54°51' W 001°18'0 0.0
2014-Nov-12 08:25N 54°51' W 001°18'0 0.0
2014-Nov-12 07:31N 54°51' W 001°18'0 0.0
2014-Nov-12 06:31N 54°51' W 001°18'4 0.3
2014-Nov-11 19:33N 54°52' W 001°12'3 1.1
2014-Nov-11 16:33N 54°48' W 001°12'1 0.8
2014-Nov-11 15:32N 54°49' W 001°13'6 6.0
2014-Nov-11 14:34N 54°45' W 001°05'  
Track history (hours):
 
Tides and Currents Weather Stations Pressure Air Temp Water Temp Dewpoint Dewpoint Depression Visibility Wind Speed Wind Dir Waves Ship Positions

Citadel

Last reported at 2014-Nov-21 14:19 UTC. Time now 2014-Nov-24 09:17 UTC.
Position N 50°29' E 000°04'.

Length 111 m; draft 6.4 m.

Type: Cargo ship. MMSI: 245977000.

Date/timePositionNaut miles runAvg speedWind from/ knotsBaromVisibWave heightAir tempDewpointWater temp
2014-Nov-21 14:19N 50°29' E 000°04'1013.3
2014-Nov-21 13:33N 50°32' E 000°20'1312.7
2014-Nov-21 12:33N 50°36' E 000°39'1211.9
2014-Nov-21 11:33N 50°43' E 000°54'1210.7
2014-Nov-21 10:28N 50°50' E 001°09'910.3
2014-Nov-21 09:34N 50°56' E 001°20'1111.5
2014-Nov-21 08:33N 51°04' E 001°33'1010.2
2014-Nov-21 07:34N 51°02' E 001°49'1312.4
2014-Nov-21 06:32N 51°03' E 002°09'8 6.1
2014-Nov-21 05:16N 51°03' E 002°21'0 0.5
2014-Nov-21 04:34N 51°03' E 002°21'0 0.0
2014-Nov-21 03:33N 51°03' E 002°21'0 0.0
2014-Nov-21 02:17N 51°03' E 002°21'0 0.0
2014-Nov-21 01:23N 51°03' E 002°21'0 0.0
2014-Nov-21 00:28N 51°03' E 002°21'0 0.0
2014-Nov-20 22:18N 51°03' E 002°21'0 0.0
2014-Nov-20 21:33N 51°03' E 002°21'0 0.0
2014-Nov-20 19:08N 51°03' E 002°21'0 0.0
2014-Nov-20 17:28N 51°03' E 002°21'0 0.0
2014-Nov-20 15:24N 51°03' E 002°21'0 0.0
2014-Nov-20 13:06N 51°03' E 002°21'0 0.0
2014-Nov-20 11:21N 51°03' E 002°21'0 0.0
2014-Nov-20 09:28N 51°03' E 002°21'0 0.0
2014-Nov-20 07:09N 51°03' E 002°21'0 0.0
2014-Nov-20 06:08N 51°03' E 002°21'0 0.0
2014-Nov-20 05:17N 51°03' E 002°21'0 0.0
2014-Nov-20 03:25N 51°03' E 002°21'0 0.0
2014-Nov-20 02:22N 51°03' E 002°21'0 0.0
2014-Nov-20 01:24N 51°03' E 002°21'0 0.0
2014-Nov-19 21:17N 51°03' E 002°21'0 0.0
2014-Nov-19 20:28N 51°03' E 002°21'0 0.0
2014-Nov-19 19:22N 51°03' E 002°21'0 0.0
2014-Nov-19 18:33N 51°03' E 002°21'0 0.0
2014-Nov-19 17:33N 51°03' E 002°21'0 0.0
2014-Nov-19 15:26N 51°03' E 002°21'0 0.0
2014-Nov-19 12:12N 51°03' E 002°21'1 1.4
2014-Nov-19 11:32N 51°03' E 002°21'8 6.7
2014-Nov-19 10:17N 51°03' E 002°07'1114.6
2014-Nov-19 09:33N 51°03' E 001°50'1211.7
2014-Nov-19 08:34N 51°11' E 001°37'1212.3
2014-Nov-19 07:34N 51°23' E 001°43'1413.7
2014-Nov-19 06:33N 51°37' E 001°45'1414.1
2014-Nov-19 05:33N 51°51' E 001°43'1414.1
2014-Nov-19 04:33N 52°05' E 001°47'1413.6
2014-Nov-19 03:33N 52°18' E 001°50'1211.7
2014-Nov-19 02:33N 52°30' E 001°53'1110.5
2014-Nov-19 01:33N 52°40' E 001°50'1111.4
2014-Nov-19 00:33N 52°50' E 001°39'1111.1
2014-Nov-18 23:33N 52°59' E 001°30'1111.3
2014-Nov-18 22:33N 53°09' E 001°20'3511.5
2014-Nov-18 19:32N 53°35' E 000°41'1111.5
2014-Nov-18 18:33N 53°43' E 000°28'1211.6
2014-Nov-18 17:34N 53°53' E 000°17'1211.9
2014-Nov-18 16:33N 54°02' E 000°05'1212.5
2014-Nov-18 15:33N 54°13' W 000°06'1313.1
2014-Nov-18 14:33N 54°23' W 000°21'1313.4
2014-Nov-18 13:33N 54°32' W 000°37'1312.7
2014-Nov-18 12:33N 54°41' W 000°54'1313.0
2014-Nov-18 11:33N 54°48' W 001°12'5 4.7
2014-Nov-18 10:33N 54°50' W 001°20'0 0.0
2014-Nov-18 09:12N 54°50' W 001°20'0 0.0
2014-Nov-18 08:23N 54°50' W 001°20'0 0.0
2014-Nov-18 07:32N 54°50' W 001°20'0 0.0
2014-Nov-18 06:26N 54°50' W 001°20'0 0.0
2014-Nov-18 05:23N 54°50' W 001°20'0 0.0
2014-Nov-18 04:31N 54°50' W 001°20'0 0.0
2014-Nov-18 03:24N 54°50' W 001°20'0 0.0
2014-Nov-18 02:18N 54°50' W 001°20'0 0.0
2014-Nov-18 01:26N 54°50' W 001°20'0 0.0
2014-Nov-18 00:20N 54°50' W 001°20'0 0.0
2014-Nov-17 23:23N 54°50' W 001°20'0 0.0
2014-Nov-17 22:22N 54°50' W 001°20'0 0.0
2014-Nov-17 21:31N 54°50' W 001°20'0 0.0
2014-Nov-17 20:24N 54°50' W 001°20'0 0.0
2014-Nov-17 18:26N 54°50' W 001°20'0 0.0
2014-Nov-17 17:32N 54°50' W 001°20'0 0.0
2014-Nov-17 16:26N 54°50' W 001°20'0 0.0
2014-Nov-17 15:16N 54°50' W 001°20'0 0.0
2014-Nov-17 14:31N 54°50' W 001°20'0 0.0
2014-Nov-17 13:33N 54°50' W 001°20'0 0.0
2014-Nov-17 12:30N 54°50' W 001°20'0 0.0
2014-Nov-17 11:20N 54°50' W 001°20'0 0.0
2014-Nov-17 10:32N 54°50' W 001°20'0 0.0
2014-Nov-17 09:29N 54°50' W 001°20'0 0.0
2014-Nov-17 08:25N 54°50' W 001°20'0 0.0
2014-Nov-16 23:33N 54°50' W 001°20'0 0.0
2014-Nov-16 22:33N 54°50' W 001°20'0 0.0
2014-Nov-16 16:28N 54°50' W 001°20'0 0.0
2014-Nov-16 15:33N 54°50' W 001°20'0 0.0
2014-Nov-16 14:03N 54°50' W 001°20'0 0.0
2014-Nov-16 13:20N 54°50' W 001°20'0 0.0
2014-Nov-16 06:32N 54°50' W 001°20'0 0.0
2014-Nov-16 05:32N 54°50' W 001°20'0 0.0
2014-Nov-16 04:31N 54°50' W 001°20'0 0.0
2014-Nov-15 22:31N 54°50' W 001°20'0 0.0
2014-Nov-15 21:31N 54°50' W 001°20'0 0.0
2014-Nov-15 20:23N 54°50' W 001°20'0 0.0
2014-Nov-15 19:33N 54°50' W 001°20'0 0.0
2014-Nov-15 15:25N 54°50' W 001°20'0 0.0
2014-Nov-15 14:22N 54°50' W 001°20'0 0.0
2014-Nov-15 13:12N 54°50' W 001°20'0 0.0
2014-Nov-15 12:21N 54°50' W 001°20'0 0.0
2014-Nov-15 11:33N 54°50' W 001°20'0 0.0
2014-Nov-15 10:23N 54°50' W 001°20'0 0.1
2014-Nov-15 09:31N 54°50' W 001°20'1 0.8
2014-Nov-15 08:22N 54°50' W 001°18'0 0.0
2014-Nov-15 07:30N 54°51' W 001°18'0 0.0
2014-Nov-15 06:33N 54°51' W 001°18'0 0.0
2014-Nov-15 05:33N 54°51' W 001°18'0 0.0
2014-Nov-15 04:32N 54°51' W 001°18'0 0.0
2014-Nov-15 00:06N 54°51' W 001°18'0 0.0
2014-Nov-14 22:33N 54°51' W 001°18'0 0.0
2014-Nov-14 21:23N 54°51' W 001°18'0 0.0
2014-Nov-14 20:32N 54°51' W 001°18'8 1.2
2014-Nov-14 14:16N 54°46' W 001°07'6 2.0
2014-Nov-14 11:15N 54°50' W 001°16'4 2.1
2014-Nov-14 09:15N 54°48' W 001°09'4 1.1
2014-Nov-14 05:27N 54°52' W 001°12'3 0.4
2014-Nov-13 22:32N 54°49' W 001°13'1 0.8
2014-Nov-13 21:20N 54°48' W 001°12'4 0.6
2014-Nov-13 14:17N 54°51' W 001°18'0 0.0
2014-Nov-13 13:11N 54°51' W 001°18'0 0.0
2014-Nov-13 11:31N 54°51' W 001°18'0 0.0
2014-Nov-13 09:09N 54°51' W 001°18'0 0.0
2014-Nov-13 06:32N 54°51' W 001°18'0 0.0
2014-Nov-13 05:13N 54°51' W 001°18'0 0.0
2014-Nov-13 04:19N 54°51' W 001°18'0 0.0
2014-Nov-13 03:16N 54°51' W 001°18'0 0.0
2014-Nov-13 02:33N 54°51' W 001°18'0 0.0
2014-Nov-13 01:12N 54°51' W 001°18'0 0.0
2014-Nov-13 00:31N 54°51' W 001°18'0 0.0
2014-Nov-12 23:24N 54°51' W 001°18'0 0.0
2014-Nov-12 22:31N 54°51' W 001°18'0 0.0
2014-Nov-12 21:04N 54°51' W 001°18'0 0.0
2014-Nov-12 20:25N 54°51' W 001°18'0 0.0
2014-Nov-12 19:18N 54°51' W 001°18'0 0.0
2014-Nov-12 18:18N 54°51' W 001°18'0 0.0
2014-Nov-12 17:26N 54°51' W 001°18'0 0.0
2014-Nov-12 16:32N 54°51' W 001°18'0 0.0
2014-Nov-12 15:25N 54°51' W 001°18'0 0.0
2014-Nov-12 14:16N 54°51' W 001°18'0 0.0
2014-Nov-12 13:31N 54°51' W 001°18'0 0.0
2014-Nov-12 12:24N 54°51' W 001°18'0 0.0
2014-Nov-12 11:08N 54°51' W 001°18'0 0.0
2014-Nov-12 10:26N 54°51' W 001°18'0 0.0
2014-Nov-12 09:32N 54°51' W 001°18'0 0.0
2014-Nov-12 08:25N 54°51' W 001°18'0 0.0
2014-Nov-12 07:31N 54°51' W 001°18'0 0.0
2014-Nov-12 06:31N 54°51' W 001°18'4 0.3
2014-Nov-11 19:33N 54°52' W 001°12'3 1.1
2014-Nov-11 16:33N 54°48' W 001°12'1 0.8
2014-Nov-11 15:32N 54°49' W 001°13'6 6.0
2014-Nov-11 14:34N 54°45' W 001°05'  

Dump ship's entire track history